Terminal Aerodrome Forecast
Issued by NWS Dallas/Fort Worth, TX

Home | Current Version | Previous Version | Text Only | Print | Product List | Glossary On
Versions: 1 2 3 4 5 6 7 8 9 10 11 12 13 14 15 16 17 18 19 20 21 22 23 24 25 26 27 28
634
FTUS44 KFWD 090850 AAA
TAFDFW
TAF AMD
KDFW 090850Z 0909/1012 32011KT P6SM SKC
     FM091600 32014G24KT P6SM FEW100
     FM100100 35008KT P6SM SKC=

USA.gov is the U.S. government's official web portal to all federal, state and local government web resources and services.